Powrót do katalogu

STARLINK-31905

AktywnyŁącznośćVLEO
NORAD 59896·PAYLOAD·🇺🇸 United States

Wystrzelony May 28, 2024 z Cape Canaveral Space Force Station

Loading…

Następne Przeloty (najbliższe 24 godziny)

TLE

ŚwieżeSource: CelesTrak SupGP

Epoka: Sep 14, 2026, 20:45 UTC

1 59896C 24100M   26257.86506944 -.00029237  00000+0 -10591-2 0  2577
2 59896  43.0016 133.6878 0001453 266.2708 234.3879 15.27588385    12

Śledź STARLINK-31905 w czasie rzeczywistym z AllMySat

Download on the App Store